EW2295 Weather Reports


time (UTC)temp
F
wind
direction
speed
knots
gust
knots
rain 1hr
in
rain 24hr
in
rain mn
in
humidity
%
barometer
mb
20260510205044 54 0 0.0 8.7 0.00 0.00 0.00 80 1009.4
20260510204548 55 351 0.0 6.1 0.00 0.00 0.00 80 1009.4
20260510204045 55 0 0.0 9.6 0.00 0.00 0.00 79 1009.4
20260510203548 55 0 0.0 9.6 0.00 0.00 0.00 79 1009.4
20260510203052 55 0 0.0 8.7 0.00 0.00 0.00 79 1009.4
20260510202547 55 360 0.0 8.7 0.00 0.00 0.00 79 1009.4
20260510202046 56 0 0.0 5.2 0.00 0.00 0.00 79 1009.5
20260510201549 56 33 0.9 9.6 0.00 0.00 0.00 79 1009.5
20260510201046 56 0 0.0 9.6 0.00 0.00 0.00 78 1009.5
20260510200548 56 0 0.0 7.8 0.00 0.00 0.00 78 1009.4
20260510200052 56 0 0.9 7.8 0.00 0.00 0.00 78 1009.4
20260510195549 57 0 0.9 7.8 0.00 0.00 0.00 78 1009.4
20260510195047 57 0 0.0 10.4 0.00 0.00 0.00 78 1009.4
20260510194603 57 360 0.9 10.4 0.00 0.00 0.00 78 1009.3
20260510194046 57 5 0.0 8.7 0.00 0.00 0.00 78 1009.5
20260510193543 57 0 0.0 8.7 0.00 0.00 0.00 78 1009.4
20260510193049 57 0 0.0 6.1 0.00 0.00 0.00 77 1009.4
20260510192542 58 0 0.0 4.3 0.00 0.00 0.00 77 1009.5
20260510192042 58 0 0.0 5.2 0.00 0.00 0.00 77 1009.5
20260510191605 58 0 0.0 5.2 0.00 0.00 0.00 76 1009.3
20260510191043 58 0 0.0 5.2 0.00 0.00 0.00 76 1009.3
20260510190546 58 0 0.0 6.1 0.00 0.00 0.00 76 1009.5
20260510190057 59 0 0.0 7.0 0.00 0.00 0.00 75 1009.5
20260510185547 59 0 0.0 7.0 0.00 0.00 0.00 75 1009.5
20260510185047 59 0 0.0 7.0 0.00 0.00 0.00 74 1009.5
20260510184550 59 0 0.9 8.7 0.00 0.00 0.00 74 1009.4
20260510184050 60 0 0.9 8.7 0.00 0.00 0.00 73 1009.6
20260510183546 60 0 1.7 7.8 0.00 0.00 0.00 72 1009.6
20260510183050 60 0 0.0 7.8 0.00 0.00 0.00 72 1009.6
20260510182545 60 0 0.0 8.7 0.00 0.00 0.00 72 1009.6
20260510182045 60 0 0.0 8.7 0.00 0.00 0.00 71 1009.6
20260510181549 61 0 0.9 9.6 0.00 0.00 0.00 71 1009.6
20260510181046 61 0 0.9 9.6 0.00 0.00 0.00 71 1009.7
20260510180543 61 0 0.0 7.8 0.00 0.00 0.00 70 1009.7
20260510180100 61 0 0.9 7.8 0.00 0.00 0.00 69 1009.7
20260510175543 62 5 0.0 4.3 0.00 0.00 0.00 68 1009.6
20260510175046 62 0 0.0 2.6 0.00 0.00 0.00 67 1009.6
20260510174547 62 0 0.0 5.2 0.00 0.00 0.00 66 1009.6
20260510174047 63 0 0.0 5.2 0.00 0.00 0.00 64 1009.4
20260510173546 63 0 0.9 5.2 0.00 0.00 0.00 62 1009.6
20260510173054 63 0 0.0 3.5 0.00 0.00 0.00 60 1009.5
20260510172546 63 0 0.0 4.3 0.00 0.00 0.00 60 1009.5
20260510172049 63 0 0.0 4.3 0.00 0.00 0.00 60 1009.5
20260510171558 63 0 0.9 7.0 0.00 0.00 0.00 60 1009.4
20260510171049 63 0 0.9 7.0 0.00 0.00 0.00 58 1009.5
20260510170545 63 0 0.0 7.0 0.00 0.00 0.00 58 1009.6
20260510170050 64 0 0.0 7.0 0.00 0.00 0.00 59 1009.5
20260510165546 64 0 0.0 7.0 0.00 0.00 0.00 58 1009.5
20260510165048 64 0 0.0 5.2 0.00 0.00 0.00 59 1009.5
20260510164557 64 0 0.9 5.2 0.00 0.00 0.00 59 1009.6
20260510164048 64 322 0.0 7.8 0.00 0.00 0.00 60 1009.6
20260510163545 64 0 0.0 7.8 0.00 0.00 0.00 59 1009.6
20260510163108 64 0 0.0 5.2 0.00 0.00 0.00 60 1009.7
20260510162546 64 0 0.0 4.3 0.00 0.00 0.00 60 1009.8
20260510162048 64 0 0.0 4.3 0.00 0.00 0.00 59 1009.8
20260510161600 64 0 0.9 4.3 0.00 0.00 0.00 60 1009.9
20260510161042 64 0 0.0 4.3 0.00 0.00 0.00 59 1010.0
20260510160542 64 0 0.9 7.0 0.00 0.00 0.00 58 1010.1
20260510155545 65 0 0.0 4.3 0.00 0.00 0.00 58 1010.3
20260510155046 65 355 0.0 7.0 0.00 0.00 0.00 59 1010.2
20260510154553 65 5 0.9 7.0 0.00 0.00 0.00 58 1010.4
20260510154045 65 0 0.0 7.0 0.00 0.00 0.00 58 1010.4
20260510153546 65 0 0.0 7.0 0.00 0.00 0.00 57 1010.5
20260510153058 65 0 0.9 7.0 0.00 0.00 0.00 57 1010.5
20260510152545 65 0 0.9 7.8 0.00 0.00 0.00 57 1010.6
20260510152046 65 0 0.0 7.8 0.00 0.00 0.00 56 1010.7
20260510151551 65 352 0.9 7.8 0.00 0.00 0.00 58 1010.8
20260510151045 65 0 0.0 7.0 0.00 0.00 0.00 58 1010.8
20260510150546 65 0 0.0 7.0 0.00 0.00 0.00 57 1010.9
20260510150103 65 0 0.9 7.0 0.00 0.00 0.00 58 1010.9
20260510145542 65 0 0.0 9.6 0.00 0.00 0.00 58 1011.0
20260510145042 65 0 1.7 9.6 0.00 0.00 0.00 57 1011.0
20260510144556 66 355 1.7 7.8 0.00 0.00 0.00 58 1011.2
20260510144047 65 338 0.9 8.7 0.00 0.00 0.00 56 1011.1
20260510143542 65 0 0.9 8.7 0.00 0.00 0.00 57 1011.3
20260510143106 65 0 0.0 7.0 0.00 0.00 0.00 57 1011.3
20260510142542 66 0 0.0 7.0 0.00 0.00 0.00 57 1011.2
20260510142047 66 0 0.0 7.0 0.00 0.00 0.00 57 1011.4
20260510141554 66 0 1.7 7.8 0.00 0.00 0.00 60 1011.4
20260510141048 66 0 0.0 7.8 0.00 0.00 0.00 59 1011.6
20260510140546 65 0 0.9 8.7 0.00 0.00 0.00 57 1011.6
20260510140055 65 338 0.9 8.7 0.00 0.00 0.00 57 1011.6
20260510135548 66 306 0.0 9.6 0.00 0.00 0.00 56 1011.7
20260510135046 66 0 0.9 9.6 0.00 0.00 0.00 55 1011.8
20260510134559 66 5 1.7 9.6 0.00 0.00 0.00 58 1011.9
20260510134049 66 0 0.9 7.8 0.00 0.00 0.00 58 1011.9
20260510133547 66 342 0.0 7.0 0.00 0.00 0.00 57 1011.9
20260510133054 66 0 0.0 7.0 0.00 0.00 0.00 58 1012.1
20260510132545 65 0 1.7 5.2 0.00 0.00 0.00 58 1012.1
20260510132046 65 0 0.0 5.2 0.00 0.00 0.00 55 1012.1
20260510131553 65 0 0.0 4.3 0.00 0.00 0.00 56 1012.3
20260510131045 66 0 0.0 4.3 0.00 0.00 0.00 55 1012.3
20260510130542 66 0 0.0 2.6 0.00 0.00 0.00 55 1012.3
20260510130059 66 0 0.0 0.0 0.00 0.00 0.00 55 1012.5
20260510125548 66 0 0.0 0.0 0.00 0.00 0.00 55 1012.5
20260510125044 65 0 0.0 2.6 0.00 0.00 0.00 56 1012.7
20260510124556 65 0 0.0 2.6 0.00 0.00 0.00 55 1012.6
20260510124046 65 0 0.0 3.5 0.00 0.00 0.00 54 1012.7
20260510123546 66 0 0.0 3.5 0.00 0.00 0.00 54 1012.7
20260510123050 66 0 0.0 5.2 0.00 0.00 0.00 55 1012.7
20260510122544 66 0 0.0 7.0 0.00 0.00 0.00 54 1012.8
20260510122045 66 0 0.9 7.0 0.00 0.00 0.00 54 1012.8
20260510121551 66 0 0.0 5.2 0.00 0.00 0.00 54 1012.8
20260510121049 66 0 0.0 5.2 0.00 0.00 0.00 56 1012.8
20260510120545 66 0 0.9 5.2 0.00 0.00 0.00 56 1012.9
20260510120051 67 0 0.9 7.0 0.00 0.00 0.00 56 1013.0
20260510115542 67 350 1.7 7.0 0.00 0.00 0.00 58 1013.1
20260510115042 66 26 0.9 7.8 0.00 0.00 0.00 56 1013.1
20260510114548 66 0 0.0 7.8 0.00 0.00 0.00 56 1013.1
20260510114044 66 355 0.0 8.7 0.00 0.00 0.00 55 1013.2
20260510113545 66 0 0.9 8.7 0.00 0.00 0.00 57 1013.2
20260510113054 66 17 0.0 7.0 0.00 0.00 0.00 57 1013.2
20260510112542 66 311 0.0 7.0 0.00 0.00 0.00 58 1013.2
20260510112042 65 0 1.7 7.0 0.00 0.00 0.00 57 1013.3
20260510111555 64 0 0.9 5.2 0.00 0.00 0.00 60 1013.4
20260510111041 65 0 0.0 5.2 0.00 0.00 0.00 58 1013.5
20260510110541 65 0 0.0 5.2 0.00 0.00 0.00 58 1013.5
20260510110050 63 0 0.0 5.2 0.00 0.00 0.00 58 1013.6
20260510105546 64 0 0.0 5.2 0.00 0.00 0.00 58 1013.5
20260510105043 63 344 0.0 2.6 0.00 0.00 0.00 61 1013.7
20260510104557 63 0 0.0 7.8 0.00 0.00 0.00 57 1013.8
20260510104049 64 352 0.9 7.8 0.00 0.00 0.00 57 1013.8
20260510103545 64 0 0.0 3.5 0.00 0.00 0.00 58 1013.8
20260510103053 63 0 0.0 3.5 0.00 0.00 0.00 59 1013.9
20260510102545 64 0 0.0 8.7 0.00 0.00 0.00 58 1013.9
20260510102045 64 0 0.0 8.7 0.00 0.00 0.00 58 1014.0
20260510101550 64 0 1.7 8.7 0.00 0.00 0.00 58 1013.9
20260510101047 64 0 0.0 3.5 0.00 0.00 0.00 62 1013.9
20260510100545 64 0 0.0 4.3 0.00 0.00 0.00 60 1013.9
20260510100050 64 0 0.0 4.3 0.00 0.00 0.00 60 1013.9
20260510095545 64 0 0.0 5.2 0.00 0.00 0.00 61 1014.0
20260510095042 63 0 0.0 7.8 0.00 0.00 0.00 62 1014.1
20260510094554 63 5 0.0 7.8 0.00 0.00 0.00 66 1014.2
20260510094044 63 5 0.9 7.8 0.00 0.00 0.00 64 1014.2
20260510093542 63 0 0.0 4.3 0.00 0.00 0.00 65 1014.2
20260510093104 63 0 0.0 0.0 0.00 0.00 0.00 65 1014.2
20260510092544 63 0 0.0 4.3 0.00 0.00 0.00 67 1014.2
20260510092042 62 0 0.0 4.3 0.00 0.00 0.00 66 1014.2
20260510091554 62 9 0.0 3.5 0.00 0.00 0.00 67 1014.3
20260510091044 63 0 0.0 4.3 0.00 0.00 0.00 68 1014.2
20260510090543 62 13 0.0 4.3 0.00 0.00 0.00 69 1014.1
20260510090052 61 0 0.0 7.0 0.00 0.00 0.00 68 1014.3
20260510085543 62 0 0.0 7.0 0.00 0.00 0.00 67 1014.2
20260510085042 62 0 0.0 5.2 0.00 0.00 0.00 72 1014.3
20260510084559 61 0 0.9 5.2 0.00 0.00 0.00 71 1014.2
20260510084042 61 0 0.0 4.3 0.00 0.00 0.00 71 1014.4
20260510083545 61 360 0.0 5.2 0.00 0.00 0.00 71 1014.3
20260510083055 60 0 0.0 7.0 0.00 0.00 0.00 72 1014.3
20260510082541 60 0 0.9 7.0 0.00 0.00 0.00 72 1014.3
20260510082047 60 5 1.7 5.2 0.00 0.00 0.00 73 1014.4
20260510081624 60 0 0.0 4.3 0.00 0.00 0.00 73 1014.4
20260510081042 60 0 0.0 4.3 0.00 0.00 0.00 76 1014.5
20260510080542 59 0 0.0 1.7 0.00 0.00 0.00 76 1014.4
20260510080051 59 0 0.0 0.9 0.00 0.00 0.00 77 1014.5
20260510075544 59 0 0.0 0.0 0.00 0.00 0.00 77 1014.5
20260510075045 59 0 0.0 0.0 0.00 0.00 0.00 77 1014.6
20260510074556 58 0 0.0 4.3 0.00 0.00 0.00 78 1014.6
20260510074048 58 0 0.0 4.3 0.00 0.00 0.00 78 1014.7
20260510073545 58 29 0.0 0.0 0.00 0.00 0.00 80 1014.5
20260510073103 57 0 0.0 0.0 0.00 0.00 0.00 80 1014.5
20260510072545 56 0 0.0 0.0 0.00 0.00 0.00 80 1014.5
20260510072047 56 0 0.0 0.0 0.00 0.00 0.00 81 1014.4
20260510071557 56 0 0.0 0.0 0.00 0.00 0.00 83 1014.4
20260510071042 56 0 0.0 0.0 0.00 0.00 0.00 85 1014.4
20260510070542 56 0 0.0 0.0 0.00 0.00 0.00 86 1014.5
20260510070054 55 0 0.0 0.0 0.00 0.00 0.00 87 1014.5
20260510065542 55 0 0.0 0.0 0.00 0.00 0.00 89 1014.6
20260510065042 55 0 0.0 0.0 0.00 0.00 0.00 91 1014.5
20260510064556 54 0 0.0 0.0 0.00 0.00 0.00 92 1014.4
20260510064044 54 0 0.0 0.0 0.00 0.00 0.00 93 1014.4
20260510063545 53 0 0.0 0.0 0.00 0.00 0.00 94 1014.3
20260510063049 52 0 0.0 0.0 0.00 0.00 0.00 94 1014.4
20260510062542 52 0 0.0 0.0 0.00 0.00 0.00 95 1014.4
20260510062043 52 0 0.0 0.0 0.00 0.00 0.00 95 1014.3
20260510061557 51 0 0.0 0.0 0.00 0.00 0.00 96 1014.2
20260510061045 51 0 0.0 0.0 0.00 0.00 0.00 96 1014.4
20260510060543 51 0 0.0 0.0 0.00 0.00 0.00 96 1014.5
20260510060056 50 0 0.0 0.0 0.00 0.00 0.00 96 1014.5
20260510055542 50 0 0.0 0.0 0.00 0.00 0.00 96 1014.6
20260510055045 49 0 0.0 0.0 0.00 0.00 0.00 96 1014.6
20260510054559 49 0 0.0 0.0 0.00 0.00 0.00 96 1014.7
20260510054043 48 0 0.0 0.0 0.00 0.00 0.00 96 1014.8
20260510053543 48 0 0.0 0.0 0.00 0.00 0.00 96 1014.8
20260510053107 48 0 0.0 0.0 0.00 0.00 0.00 96 1014.6
20260510052544 47 0 0.0 0.0 0.00 0.00 0.00 96 1014.7
20260510052047 47 0 0.0 0.0 0.00 0.00 0.00 96 1014.8
20260510051602 47 0 0.0 0.0 0.00 0.00 0.00 95 1014.8
20260510051042 46 0 0.0 0.0 0.00 0.00 0.00 95 1014.7
20260510050542 46 0 0.0 0.0 0.00 0.00 0.00 95 1014.7
20260510050111 46 0 0.0 0.0 0.00 0.00 0.00 95 1014.7
20260510045546 46 0 0.0 0.0 0.00 0.00 0.00 95 1014.8
20260510045046 46 0 0.0 0.0 0.00 0.00 0.00 95 1014.7
20260510044605 46 0 0.0 0.0 0.00 0.00 0.00 95 1014.7
20260510044044 46 0 0.0 0.0 0.00 0.00 0.00 95 1014.8
20260510043545 46 0 0.0 0.0 0.00 0.00 0.00 95 1014.7
20260510043056 46 0 0.0 0.0 0.00 0.00 0.00 95 1014.8
20260510042542 46 0 0.0 0.0 0.00 0.00 0.00 95 1014.9
20260510042042 46 0 0.0 0.0 0.00 0.00 0.00 95 1014.8
20260510041602 46 0 0.0 0.0 0.00 0.00 0.00 95 1014.8
20260510041043 45 0 0.0 0.0 0.00 0.00 0.00 95 1014.8
20260510040542 45 0 0.0 0.0 0.00 0.00 0.00 95 1014.9
20260510040055 45 0 0.0 0.0 0.00 0.00 0.00 95 1014.9
20260510035545 45 0 0.0 0.0 0.00 0.00 0.00 95 1014.8
20260510035042 46 0 0.0 0.0 0.00 0.00 0.00 95 1014.8
20260510034557 46 0 0.0 0.0 0.00 0.00 0.00 95 1014.7
20260510034043 46 0 0.0 0.0 0.00 0.00 0.00 95 1014.8
20260510033547 46 0 0.0 0.0 0.00 0.00 0.00 95 1014.6
20260510033107 46 0 0.0 0.0 0.00 0.00 0.00 95 1014.7
20260510032546 46 0 0.0 0.0 0.00 0.00 0.00 95 1014.8
20260510032045 47 0 0.0 0.0 0.00 0.00 0.00 95 1014.9
20260510031551 47 0 0.0 0.0 0.00 0.00 0.00 95 1015.0
20260510031042 47 0 0.0 0.0 0.00 0.00 0.00 95 1014.9
20260510030545 47 0 0.0 0.0 0.00 0.00 0.00 95 1014.9
20260510030110 47 0 0.0 0.0 0.00 0.00 0.00 95 1015.1
20260510025544 46 0 0.0 0.0 0.00 0.00 0.00 95 1015.2
20260510025042 46 0 0.0 0.0 0.00 0.00 0.00 94 1015.2
20260510024547 46 0 0.0 0.0 0.00 0.00 0.00 94 1015.2
20260510024043 46 0 0.0 0.0 0.00 0.00 0.00 94 1015.2
20260510023542 46 0 0.0 0.0 0.00 0.00 0.00 94 1015.1
20260510023049 46 0 0.0 0.0 0.00 0.00 0.00 94 1015.2
20260510022542 46 0 0.0 0.0 0.00 0.00 0.00 94 1015.1
20260510022042 46 0 0.0 0.0 0.00 0.00 0.00 94 1015.0
20260510021553 47 0 0.0 0.0 0.00 0.00 0.00 94 1015.2
20260510021041 46 0 0.0 0.0 0.00 0.00 0.00 94 1015.2
20260510020542 47 0 0.0 0.0 0.00 0.00 0.00 94 1015.1
20260510020051 47 0 0.0 0.0 0.00 0.00 0.00 94 1015.3
20260510015541 47 0 0.0 0.0 0.00 0.00 0.00 94 1015.3
20260510015042 47 0 0.0 0.0 0.00 0.00 0.00 94 1015.2
20260510014602 47 0 0.0 0.0 0.00 0.00 0.00 94 1015.3
20260510014042 47 0 0.0 0.0 0.00 0.00 0.00 94 1015.3
20260510013545 47 0 0.0 0.0 0.00 0.00 0.00 94 1015.3
20260510013050 48 0 0.0 0.0 0.00 0.00 0.00 94 1015.3
20260510012541 48 0 0.0 0.0 0.00 0.00 0.00 94 1015.3
20260510012042 48 0 0.0 0.0 0.00 0.00 0.00 94 1015.4
20260510011554 48 0 0.0 0.0 0.00 0.00 0.00 94 1015.5
20260510011043 48 0 0.0 0.0 0.00 0.00 0.00 94 1015.4
20260510010542 48 0 0.0 0.0 0.00 0.00 0.00 94 1015.4
20260510010050 48 0 0.0 0.0 0.00 0.00 0.00 94 1015.5
20260510005542 48 0 0.0 0.0 0.00 0.00 0.00 94 1015.4
20260510005042 48 0 0.0 0.0 0.00 0.00 0.00 94 1015.6
20260510004551 48 0 0.0 0.0 0.00 0.00 0.00 94 1015.4
20260510004042 48 0 0.0 0.0 0.00 0.00 0.00 94 1015.6
20260510003542 48 0 0.0 0.0 0.00 0.00 0.00 94 1015.6
20260510003054 48 0 0.0 0.0 0.00 0.00 0.00 94 1015.7
20260510002544 48 0 0.0 0.0 0.00 0.00 0.00 94 1015.8
20260510002041 48 0 0.0 0.0 0.00 0.00 0.00 94 1015.7
20260510001555 49 0 0.0 0.0 0.00 0.00 0.00 94 1015.8
20260510001045 48 0 0.0 0.0 0.00 0.00 0.00 94 1015.9
20260510000543 48 0 0.0 0.0 0.00 0.00 0.00 94 1015.9
20260510000055 48 0 0.0 0.0 0.00 0.00 0.00 93 1015.9
20260509235541 49 0 0.0 0.0 0.00 0.00 0.00 94 1015.9
20260509235041 49 0 0.0 0.0 0.00 0.00 0.00 94 1016.1
20260509234558 49 0 0.0 0.0 0.00 0.00 0.00 94 1016.1
20260509234044 49 0 0.0 0.0 0.00 0.00 0.00 94 1016.1
20260509233545 49 0 0.0 0.0 0.00 0.00 0.00 94 1016.2
20260509233100 49 0 0.0 0.0 0.00 0.00 0.00 93 1016.2
20260509232542 49 0 0.0 0.0 0.00 0.00 0.00 93 1016.3
20260509232042 48 0 0.0 0.0 0.00 0.00 0.00 93 1016.3
20260509231553 48 0 0.0 0.0 0.00 0.00 0.00 93 1016.3
20260509231041 48 0 0.0 0.0 0.00 0.00 0.00 93 1016.4
20260509230545 48 0 0.0 0.0 0.00 0.00 0.00 93 1016.4
20260509230054 49 0 0.0 0.0 0.00 0.00 0.00 93 1016.4
20260509225542 49 0 0.0 0.0 0.00 0.00 0.00 93 1016.4
20260509225041 49 0 0.0 0.0 0.00 0.00 0.00 92 1016.5
20260509224549 49 0 0.0 0.0 0.00 0.00 0.00 92 1016.4
20260509224046 49 0 0.0 0.0 0.00 0.00 0.00 92 1016.5
20260509223543 49 0 0.0 0.0 0.00 0.00 0.00 92 1016.5
20260509223057 49 0 0.0 0.0 0.00 0.00 0.00 92 1016.6
20260509222541 49 0 0.0 0.0 0.00 0.00 0.00 92 1016.6
20260509222042 50 0 0.0 0.0 0.00 0.00 0.00 92 1016.7
20260509221549 50 0 0.0 0.0 0.00 0.00 0.00 92 1016.7
20260509221043 50 0 0.0 0.0 0.00 0.00 0.00 91 1016.6
20260509220546 50 0 0.0 0.0 0.00 0.00 0.00 91 1016.7
20260509220051 50 0 0.0 0.0 0.00 0.00 0.00 91 1016.6
20260509215542 50 0 0.0 0.0 0.00 0.00 0.00 91 1016.6
20260509215042 50 0 0.0 0.0 0.00 0.00 0.00 91 1016.6
20260509214554 50 0 0.0 0.0 0.00 0.00 0.00 91 1016.7
20260509214042 51 0 0.0 0.0 0.00 0.00 0.00 90 1016.7
20260509213544 51 0 0.0 0.0 0.00 0.00 0.00 90 1016.6
20260509213050 51 0 0.0 0.0 0.00 0.00 0.00 90 1016.7
20260509212543 51 0 0.0 0.0 0.00 0.00 0.00 90 1016.8
20260509212042 51 0 0.0 0.0 0.00 0.00 0.00 90 1016.9
20260509211550 51 0 0.0 0.0 0.00 0.00 0.00 89 1017.0
20260509211045 51 0 0.0 0.0 0.00 0.00 0.00 89 1016.8
20260509210546 52 0 0.0 0.0 0.00 0.00 0.00 89 1016.8
20260509210053 52 0 0.0 0.0 0.00 0.00 0.00 88 1016.7
20260509205543 52 0 0.0 0.0 0.00 0.00 0.00 88 1016.8